Location: Burtsch�tz
(51.0528°N, 12.1764°E)
Time: 07:10:20
(UTC+00:00)

Cosmos 2219 - Pass Details

Date: 29 October 2020
Orbit: 832 x 862 km, 71.1° (Epoch: 01 December)

Event Time Altitude Azimuth Distance (km) Brightness Sun altitude
Rises 16:19:05 0° 330° (NNW) 3,446 6.6 -5.1°
Reaches altitude 10° 16:21:34 10° 333° (NNW) 2,508 5.8 -5.5°
Maximum altitude 16:27:20 69° 58° (ENE) 921 3.2 -6.4°
Drops below altitude 10° 16:33:04 10° 141° (SE) 2,496 5.4 -7.3°
Sets 16:35:32 0° 144° (SE) 3,427 6.1 -7.7°
